Location: Indian Hills
(32.9760°N, 85.9450°W)
Time: 13:13:48
(UTC+00:00)

SJ-12 - Pass Details

Date: 09 December 2019
Orbit: 568 x 586 km, 97.6° (Epoch: 27 January)

Event Time Altitude Azimuth Distance (km) Brightness Sun altitude
Rises 10:45:45 0° 14° (NNE) 2,805 7.4 -22.3°
Reaches altitude 10° 10:47:56 10° 16° (NNE) 1,899 6.6 -21.8°
Maximum altitude 10:52:02 73° 102° (ESE) 605 4.1 -21.0°
Drops below altitude 10° 10:56:06 10° 187° (S) 1,875 6.6 -20.2°
Sets 10:58:14 0° 189° (S) 2,766 7.5 -19.7°
